Theta_e
344 346 348 348 348 347 347 348 346 347 344 344 342 342 342 343 344 344 343 341 344 345 343 343 344 344 345 345 345 346 347 346 347 346 345 345 344 344 345 344 343 342 341 341 340 340 340 340 339 338 337 338 339 332 331 332 333 335 334 337 337 334
343 344 346 346 348 348 346 346 342 343 345 342 344 340 343 342 346 341 340 340 341 344 341 339 341 345 344 345 345 346 346 345 346 346 345 345 344 343 343 344 343 342 341 340 334 329 333 338 338 337 338 335 329 328 330 332 332 333 335 336 336 336
343 344 345 346 347 347 345 343 341 340 341 344 344 342 338 340 338 339 340 339 341 342 339 340 342 343 343 345 344 346 345 343 344 344 345 345 344 344 343 344 343 342 340 336 327 326 326 326 329 335 332 328 327 328 329 330 331 333 334 335 333 338
342 343 344 345 346 345 344 343 341 339 340 338 337 339 337 338 338 338 340 338 338 340 339 337 345 345 344 343 343 343 345 343 344 344 344 344 344 343 343 343 342 340 335 330 326 327 326 325 324 324 326 326 326 326 328 329 331 332 332 337 332 338
342 343 343 342 344 343 343 343 341 341 340 340 337 335 336 337 337 337 337 338 338 338 336 336 337 338 337 338 338 338 340 338 338 340 342 337 338 340 339 335 335 334 329 329 327 326 326 326 325 324 325 324 325 325 328 330 330 331 332 335 334 338
341 341 343 342 342 344 343 340 340 340 340 340 339 337 336 334 336 336 337 337 340 335 335 333 333 333 335 335 336 336 337 336 336 337 339 336 336 336 336 335 334 333 330 329 329 329 329 328 325 324 324 324 323 325 326 328 329 330 331 332 335 338
340 341 341 342 340 339 338 338 338 338 339 337 338 337 336 335 335 335 337 339 337 335 335 333 332 333 335 335 335 336 336 336 336 336 338 338 337 337 336 335 333 332 328 328 328 325 325 324 325 327 325 324 325 326 326 327 328 329 330 331 333 338
339 339 339 339 337 336 336 337 339 341 337 340 338 336 335 336 336 335 336 335 337 334 334 332 332 333 336 336 336 336 336 336 338 337 336 336 336 335 335 333 331 327 328 327 327 327 326 325 324 325 327 326 326 325 325 326 327 328 329 330 331 336
338 338 336 336 334 334 335 336 336 334 334 340 332 332 334 336 337 336 335 335 336 332 331 332 332 333 334 335 336 334 333 335 338 336 334 333 334 334 333 331 328 327 323 325 324 325 325 325 323 323 325 327 326 326 325 325 326 327 328 329 330 332
336 335 334 333 331 330 330 332 333 334 336 335 328 329 331 333 334 334 332 333 334 333 332 332 332 331 332 334 334 332 331 332 334 336 334 332 332 332 331 328 326 326 326 324 325 325 327 325 324 325 325 327 326 326 326 325 325 326 328 329 330 332
334 335 332 332 328 329 329 330 331 329 329 329 330 332 330 330 330 331 332 333 333 333 332 332 331 331 331 332 332 329 328 330 332 336 335 333 331 331 330 329 328 327 326 324 325 326 326 325 324 324 325 327 327 326 327 326 325 326 327 328 329 330
331 331 330 330 330 327 327 329 329 327 328 328 330 329 330 330 332 330 333 333 333 332 332 330 331 332 331 331 331 330 329 330 331 333 335 334 332 332 331 330 330 329 328 327 326 326 326 326 325 325 324 325 326 326 327 326 326 325 327 328 328 330
326 326 327 327 326 324 324 328 325 323 326 330 331 330 329 330 331 332 332 332 333 333 334 332 332 332 332 332 331 331 330 330 331 333 333 334 333 333 332 331 330 330 328 327 327 327 327 326 326 326 326 326 326 326 326 326 326 325 326 327 328 329
322 322 323 322 322 322 323 323 321 319 324 322 322 323 329 329 332 331 332 331 331 333 333 332 332 331 333 332 331 331 331 331 332 333 331 333 333 333 332 332 330 329 330 327 326 327 327 327 327 326 326 326 326 326 326 325 325 325 326 326 328 328
322 320 323 321 322 321 318 322 317 316 317 317 319 318 319 324 327 331 331 331 333 333 333 333 332 331 332 332 331 332 332 333 332 332 330 330 332 332 332 332 331 329 328 327 327 328 328 327 327 327 327 326 325 325 325 326 325 325 325 326 327 328
318 318 317 319 315 316 315 313 316 322 316 317 317 317 316 320 322 323 327 328 330 333 333 332 332 331 331 330 330 330 330 332 333 332 331 329 330 331 330 330 331 331 328 328 327 327 326 326 326 326 326 325 324 325 324 325 325 324 325 325 326 327
315 316 315 313 311 310 310 311 313 314 313 313 313 313 315 319 321 320 321 323 325 329 330 331 332 332 331 330 330 329 329 330 333 333 331 330 330 331 329 330 329 331 331 328 328 328 327 327 325 324 323 322 322 323 324 325 325 325 324 324 325 326
314 315 313 311 310 310 311 312 312 315 319 313 313 314 317 319 318 318 320 321 324 329 330 331 331 330 329 332 331 330 329 330 331 332 331 330 329 330 328 330 329 330 331 330 328 327 327 327 326 326 323 320 320 321 322 324 325 327 325 324 325 325
313 311 310 311 312 310 311 311 311 312 313 313 314 314 316 317 316 317 317 320 327 329 330 328 330 330 329 330 329 329 329 329 330 331 330 328 327 328 329 330 328 328 331 331 329 329 328 326 325 325 326 322 320 320 321 323 325 326 325 325 325 326
310 310 311 311 311 310 311 312 313 312 314 313 313 317 314 314 315 316 319 317 317 318 321 321 319 321 324 326 327 327 327 329 330 330 329 328 328 328 328 328 328 327 327 328 331 330 329 327 326 325 324 323 324 322 321 322 324 325 326 326 326 327
309 311 311 309 308 308 308 307 307 309 310 309 313 312 313 312 314 315 315 315 315 315 315 317 317 315 315 324 323 325 324 325 329 328 326 326 327 327 328 328 327 327 327 326 326 328 330 329 325 323 321 322 322 323 324 322 323 324 325 326 326 326
309 310 310 310 310 308 305 309 308 310 308 309 311 311 311 311 313 315 314 313 314 313 314 316 318 317 316 314 316 317 318 320 322 323 324 325 326 327 326 326 326 323 328 327 325 329 330 327 321 319 315 317 320 321 322 323 321 323 325 325 326 326
310 310 309 311 308 307 305 306 307 306 311 308 307 310 310 314 314 311 310 311 312 311 313 314 315 318 316 316 317 318 318 319 320 322 320 320 322 322 324 325 324 323 323 326 326 329 328 327 322 321 320 319 314 315 318 319 320 321 322 325 325 325
310 310 310 312 311 305 308 306 307 310 307 307 309 314 309 309 309 309 310 310 311 310 312 313 313 315 314 314 315 315 316 316 316 318 316 316 318 319 321 322 324 325 325 321 322 324 328 327 325 322 316 317 316 314 312 316 316 320 320 321 323 324
310 309 310 314 309 309 311 310 310 310 310 310 311 308 309 308 309 314 310 309 309 310 311 312 313 314 317 313 313 314 314 314 315 314 315 315 315 315 317 317 319 321 322 322 321 323 325 328 327 327 322 317 315 313 313 315 318 318 319 320 320 321
309 309 310 309 308 310 312 310 309 307 306 304 305 306 306 308 308 308 308 308 308 309 310 310 310 313 316 315 312 313 313 314 314 314 314 314 314 315 315 315 316 317 318 321 323 321 320 324 327 327 327 326 323 316 316 319 318 314 321 320 321 321
310 310 310 309 308 311 309 310 310 309 307 306 306 305 303 304 308 305 306 308 307 308 309 310 310 310 312 313 311 312 313 314 314 314 316 313 313 313 314 315 316 315 315 317 318 316 316 318 323 322 324 326 326 326 325 320 316 317 315 320 323 323
310 312 310 309 308 309 309 309 308 306 307 305 305 307 305 304 305 309 308 307 307 307 308 309 309 309 311 313 311 310 311 312 313 314 314 312 312 312 312 314 314 314 315 315 315 314 314 316 315 315 320 321 322 324 327 326 325 319 317 315 319 324
309 311 309 308 309 307 310 309 308 307 307 307 306 307 308 310 308 310 306 306 307 306 306 307 308 308 309 314 315 309 310 311 311 312 314 311 310 311 310 310 311 311 312 313 314 314 313 312 314 313 315 315 318 318 321 325 324 324 318 315 315 317
309 310 310 308 309 307 307 310 306 306 307 306 308 305 306 307 306 305 306 305 306 306 305 306 305 307 308 310 310 310 310 310 310 312 313 308 308 309 309 309 310 310 310 310 311 312 312 312 313 313 314 314 313 314 315 318 318 316 319 321 315 315
310 310 310 308 308 307 306 307 307 306 307 307 306 306 306 305 305 304 305 305 305 305 305 305 304 305 307 308 311 312 309 310 312 314 310 308 308 308 308 308 308 308 308 308 308 309 310 311 311 311 311 312 312 312 312 312 312 314 314 313 314 315
309 309 309 308 308 307 306 307 306 307 307 308 307 307 307 306 306 307 305 305 304 304 305 306 305 306 306 308 310 309 311 309 309 307 307 308 308 308 308 308 308 308 307 307 308 309 307 308 308 308 309 311 311 312 312 311 313 314 313 313 313 312
309 309 309 308 308 306 306 307 306 306 307 308 308 308 307 307 306 307 305 305 304 306 304 306 306 307 306 306 309 307 307 308 308 309 307 307 307 307 307 307 306 306 306 307 307 307 307 306 307 307 307 308 309 309 310 312 313 312 313 314 314 311
309 309 309 307 307 306 306 307 306 307 307 309 307 308 307 307 307 307 307 306 306 306 306 307 306 307 307 306 308 310 309 307 308 308 308 306 306 306 305 306 305 305 306 306 306 306 306 307 306 306 307 306 307 308 309 310 311 311 310 311 310 309
308 309 309 308 307 306 306 306 306 307 307 308 308 307 307 307 307 307 306 307 306 305 306 306 307 307 307 307 307 307 307 307 307 308 308 308 307 306 306 307 307 307 307 305 306 306 305 305 305 305 305 306 308 307 307 308 309 309 311 311 310 310
309 309 309 309 308 307 307 307 307 306 307 308 310 309 307 307 306 307 307 307 307 306 306 306 305 307 306 307 307 306 308 305 305 306 306 305 305 305 305 305 304 303 304 308 304 304 304 303 304 304 305 305 305 305 307 307 308 309 310 310 310 311
309 309 309 309 309 308 307 306 306 307 307 307 308 308 308 307 306 306 306 307 307 307 306 305 305 306 306 305 307 307 306 305 305 304 304 305 304 304 304 304 303 302 303 305 306 304 304 304 304 304 304 304 304 305 306 307 307 308 308 308 309 309
Wind_Speed
6 7 5 5 4 4 5 10 9 10 9 12 10 6 6 6 6 4 5 5 5 5 4 4 6 5 11 7 8 8 9 10 10 9 9 8 5 3 4 9 9 9 8 6 7 9 9 7 8 7 6 5 6 5 5 5 4 3 3 3 3 3
6 6 5 4 3 3 3 5 4 4 5 5 7 6 3 4 7 4 4 3 4 5 5 5 4 7 5 6 8 9 9 10 10 10 9 9 8 5 3 2 7 7 7 8 6 3 4 6 7 7 6 6 4 4 4 5 5 4 4 3 4 3
7 6 5 5 3 4 5 4 4 5 4 6 5 6 3 2 3 4 5 4 3 4 4 4 5 5 5 9 8 10 10 10 9 10 10 9 8 6 5 3 4 6 6 9 4 2 2 2 4 5 5 4 3 4 4 4 4 4 4 4 4 5
6 6 4 4 4 4 4 4 4 4 4 3 4 2 4 3 3 3 3 2 2 3 3 3 6 8 8 4 5 8 10 10 10 10 11 8 9 7 6 4 2 7 4 3 3 2 2 2 3 2 3 3 3 4 4 4 3 3 4 4 4 7
6 5 5 3 4 4 4 4 5 4 3 5 4 3 3 4 3 4 3 1 1 3 3 3 4 3 4 4 2 0 2 5 3 4 7 3 3 4 4 1 1 4 3 2 3 2 2 2 3 3 2 2 3 3 4 4 3 3 3 3 4 7
6 6 4 3 3 4 4 3 4 4 3 3 4 4 3 3 3 3 3 2 3 4 3 3 3 3 3 4 4 5 4 4 4 3 3 4 3 3 3 2 1 2 2 2 3 4 3 2 3 3 2 1 2 3 3 4 4 3 3 4 4 7
6 5 5 4 3 3 3 2 2 3 4 4 4 4 4 4 3 4 4 4 4 4 4 3 3 4 5 4 5 5 4 3 4 4 3 4 4 3 3 3 2 2 2 2 2 4 3 2 1 2 2 2 0 2 4 4 4 4 3 3 2 5
5 5 4 4 4 3 3 4 4 5 3 4 4 4 4 4 4 4 4 4 4 5 5 5 4 4 5 4 5 4 3 4 4 4 4 4 4 3 3 3 2 3 2 1 1 2 4 2 1 1 1 0 2 2 3 4 4 4 4 4 3 5
5 5 4 4 4 3 4 4 3 3 3 5 3 3 4 4 4 4 3 4 4 5 4 4 5 5 4 5 5 4 3 3 3 3 3 3 4 4 4 3 3 3 2 2 1 1 2 3 2 2 2 2 2 3 3 3 4 4 4 4 4 5
5 5 4 4 4 4 4 4 4 4 3 4 2 0 3 4 4 4 4 3 4 5 6 6 5 5 5 5 5 5 4 2 2 3 4 4 3 4 4 3 3 3 3 3 3 2 2 2 3 3 3 3 3 3 3 3 4 4 4 4 5 4
6 6 4 4 3 4 4 4 4 3 3 3 2 2 2 2 3 4 4 4 4 5 5 4 4 4 4 4 4 4 4 3 3 3 4 3 3 3 3 4 4 4 4 3 3 2 2 3 2 3 3 3 4 3 4 4 3 4 4 5 5 5
6 5 5 5 4 4 4 4 4 3 3 1 2 2 2 2 3 2 1 1 2 2 1 1 2 3 4 4 3 4 6 5 5 1 1 3 3 3 3 3 3 3 3 2 2 2 2 2 3 3 3 4 3 4 4 4 4 4 4 5 5 5
5 4 6 6 5 3 4 4 4 3 4 4 3 2 1 1 4 4 4 3 3 2 2 1 1 2 2 2 2 2 3 5 4 2 1 2 4 3 3 2 2 2 1 1 2 3 2 2 4 4 2 4 4 5 4 4 4 4 5 5 5 5
5 6 5 4 4 4 4 4 2 2 2 3 3 4 2 2 1 2 1 1 1 1 2 3 3 3 3 2 1 0 2 3 4 3 2 2 3 3 3 2 1 0 2 2 3 3 4 4 4 4 4 4 4 4 4 4 5 5 4 5 4 4
5 5 5 4 5 4 3 4 3 3 2 2 2 4 4 3 3 3 3 3 2 1 1 2 1 3 2 2 1 2 4 4 3 3 3 1 3 4 4 3 3 1 1 2 3 3 3 4 4 5 5 4 5 3 4 5 4 5 5 5 4 5
5 5 4 4 3 3 4 4 3 3 3 2 3 3 4 4 2 1 2 3 1 1 1 2 1 0 1 3 1 4 0 1 2 4 5 7 6 4 3 3 3 2 0 2 3 3 2 3 4 6 6 5 5 4 4 4 5 5 5 4 4 5
6 5 4 3 3 3 4 4 3 2 2 2 4 3 3 4 3 2 1 1 1 1 3 3 2 1 2 3 4 1 4 0 0 2 3 5 3 1 3 1 2 2 2 2 2 4 4 3 5 5 6 5 4 4 5 5 5 5 2 5 6 5
5 4 4 4 3 4 4 4 4 3 3 4 3 3 4 3 2 2 2 1 2 2 2 2 2 1 2 4 3 0 1 2 3 2 2 4 3 2 5 5 3 3 4 3 4 5 4 3 5 6 5 5 4 5 5 5 5 4 4 6 5 6
6 5 4 5 4 5 5 5 4 4 5 4 4 4 3 4 3 3 3 3 4 3 3 3 3 1 1 1 1 3 4 2 1 2 3 2 3 2 2 2 3 2 2 4 4 3 2 2 4 6 6 5 4 5 4 4 4 5 5 7 6 6
6 6 5 5 5 5 5 4 5 4 6 4 3 4 4 3 3 4 4 4 4 3 2 2 2 2 2 2 3 3 2 1 2 3 3 3 2 1 2 3 4 4 3 2 2 3 4 2 3 5 6 6 4 3 4 4 5 6 6 6 7 4
6 7 8 6 4 5 4 3 3 3 5 1 3 3 3 2 4 4 4 4 4 4 3 3 3 3 3 3 4 3 2 3 3 3 4 4 3 3 3 3 3 2 3 3 2 1 3 4 2 3 5 6 6 3 2 4 5 5 6 7 5 6
6 6 7 8 7 4 3 5 5 4 3 3 4 5 3 2 3 4 4 3 3 3 3 3 2 3 4 4 4 3 3 4 4 4 4 3 3 1 1 2 2 3 3 2 2 2 2 3 2 2 1 5 4 5 2 3 4 5 5 5 5 6
7 8 6 6 6 5 2 1 4 3 5 3 1 0 2 2 2 5 4 3 3 3 3 3 3 3 5 5 5 5 4 4 6 5 6 6 5 4 4 4 4 3 2 3 3 2 2 1 2 2 2 1 3 2 2 1 1 4 5 5 4 5
7 6 7 5 4 4 4 3 3 5 3 4 3 2 3 3 3 4 4 3 3 3 3 3 3 4 5 5 5 6 5 6 6 5 6 6 5 6 6 6 5 4 2 4 2 1 1 1 1 4 2 2 1 1 3 2 4 5 2 5 4 6
8 7 6 4 5 6 6 5 4 4 4 6 5 4 3 2 2 2 3 4 2 2 3 3 3 4 5 5 5 5 6 6 6 5 5 6 6 5 6 6 6 6 4 2 3 2 2 2 2 1 3 2 0 1 2 1 4 4 3 2 2 4
5 5 6 4 6 7 7 7 6 6 4 3 5 5 5 5 2 2 3 0 2 3 3 3 4 4 4 5 6 5 5 6 6 6 6 6 5 5 7 7 6 5 6 5 3 4 4 3 4 3 1 2 1 1 1 1 2 3 4 1 2 0
7 6 5 5 5 6 6 7 8 8 7 8 8 4 2 2 5 2 2 3 2 2 2 3 3 4 5 4 5 5 6 6 6 6 4 6 7 6 5 5 5 7 5 5 5 6 5 4 2 6 5 4 2 0 1 1 1 2 3 4 3 4
7 6 6 6 6 6 8 6 5 5 5 6 7 7 5 4 2 3 3 3 2 3 3 2 3 4 4 4 5 5 6 6 7 6 6 6 6 4 5 5 5 6 6 6 6 6 5 5 4 3 5 5 4 3 1 1 2 1 3 4 5 4
7 6 6 6 7 5 6 8 7 6 4 4 3 3 4 3 4 3 4 2 3 2 3 2 2 3 3 4 4 5 6 6 7 6 5 6 5 5 6 6 6 6 6 6 5 5 5 4 5 5 4 5 4 4 2 2 1 2 2 2 3 2
8 7 7 7 7 6 5 6 6 5 6 5 2 2 4 5 4 3 4 3 3 3 2 3 3 4 3 4 5 5 6 6 6 6 5 5 5 5 5 6 5 5 5 6 5 5 5 4 4 5 5 3 5 4 4 3 4 5 3 3 4 5
10 7 6 7 7 8 6 6 7 7 6 6 4 4 5 4 4 3 4 4 4 4 2 3 3 4 3 4 4 4 6 5 4 5 5 6 5 5 5 5 5 6 6 6 5 5 5 5 4 5 6 5 5 4 4 3 4 4 3 2 4 4
8 7 6 7 7 7 7 7 6 7 8 7 7 6 7 7 7 7 5 5 3 3 2 2 2 4 3 3 5 5 5 5 5 5 5 5 5 5 5 5 5 5 5 5 5 5 5 5 5 5 5 4 4 3 4 4 3 4 4 4 4 5
10 8 7 7 8 8 7 8 8 7 6 6 7 7 7 7 6 7 6 5 5 5 3 3 2 4 3 4 4 6 5 6 5 4 4 4 4 5 5 5 5 5 5 5 5 5 5 5 5 5 4 3 3 4 3 3 3 3 3 4 4 4
12 9 7 7 8 8 9 8 8 7 7 6 7 7 6 7 7 6 7 7 7 7 7 6 5 5 5 4 3 4 5 6 6 5 5 5 4 4 5 5 4 5 4 3 4 5 5 4 4 4 3 4 4 3 3 3 3 3 4 4 3 4
10 9 9 10 8 9 9 8 7 7 7 6 7 7 7 6 6 6 6 6 6 5 6 6 7 5 5 5 5 5 5 6 5 5 5 4 4 5 5 4 4 5 4 3 4 4 4 4 4 4 4 3 3 3 3 3 3 4 4 4 5 5
13 12 10 9 9 9 9 8 7 8 8 7 6 6 5 4 5 6 7 7 7 7 7 6 4 5 5 6 6 6 5 6 5 5 5 5 5 5 4 5 4 5 4 1 4 4 3 3 3 2 2 2 3 3 3 3 3 3 3 3 4 4
6 5 8 9 10 8 8 7 8 7 7 6 7 7 8 8 7 6 5 6 6 7 5 5 6 4 6 5 6 7 6 6 5 5 4 4 5 5 5 5 4 4 5 3 4 4 3 2 1 0 2 1 1 1 2 2 2 2 3 3 3 4
Wind_Direction
115 118 105 99 103 115 149 148 157 149 142 156 163 157 154 160 147 119 147 178 151 142 147 135 162 150 158 151 151 151 158 162 155 160 166 172 180 209 182 143 138 141 138 123 113 107 102 88 79 66 55 61 103 104 135 129 133 124 130 144 137 158
123 123 119 114 105 117 118 120 125 131 142 144 146 120 163 156 145 125 135 204 184 150 136 148 148 159 141 162 165 166 171 167 162 165 171 175 172 188 230 164 131 138 129 110 95 66 82 81 80 71 62 76 81 115 124 141 136 142 140 140 143 189
131 130 127 127 110 105 103 104 94 96 123 145 142 131 100 95 66 133 162 199 186 131 134 145 156 157 155 172 177 174 174 169 175 172 177 178 174 176 200 242 116 113 110 107 92 74 73 65 66 65 63 69 86 112 120 127 135 148 153 158 148 190
134 132 130 125 102 103 113 110 98 88 128 85 86 119 110 101 103 116 146 226 172 133 113 137 162 169 167 176 195 185 177 176 171 179 181 181 174 177 187 210 149 99 84 78 96 85 63 22 61 60 77 81 92 124 135 142 146 150 161 174 171 192
137 132 129 125 117 116 112 117 129 140 139 129 137 144 131 125 142 143 182 215 152 114 109 121 145 182 152 159 136 112 206 158 191 184 179 162 165 175 162 143 76 93 93 85 87 71 46 32 34 19 51 70 89 122 145 145 151 167 175 188 177 201
135 138 119 94 98 139 118 110 110 143 136 121 131 140 128 139 133 147 172 174 150 103 122 126 131 133 159 150 163 184 182 165 173 173 135 158 144 134 142 177 150 122 110 94 98 106 69 61 26 39 342 18 86 125 161 162 165 175 186 197 203 209
127 123 115 112 93 83 102 85 98 125 134 126 127 137 149 162 169 165 170 174 147 139 142 153 157 162 173 163 183 182 184 169 165 147 149 172 170 161 172 185 166 148 115 113 103 102 102 90 81 80 18 327 4 141 166 179 178 180 195 208 214 224
125 127 124 123 115 110 102 126 156 156 122 147 142 141 140 163 158 180 163 178 157 156 163 172 180 184 186 183 192 183 154 165 162 172 167 174 176 172 179 202 169 143 127 104 101 100 114 129 157 141 113 316 302 250 178 189 192 189 196 205 207 226
133 139 136 133 125 116 120 114 95 101 134 156 135 153 158 158 158 149 164 169 156 162 179 178 180 195 182 193 185 159 160 187 188 167 157 181 173 178 199 193 193 179 144 151 158 196 133 146 168 167 164 167 235 265 216 194 204 206 201 198 203 216
134 137 136 126 132 126 125 115 115 111 117 111 53 1 174 164 157 154 168 182 183 181 185 187 191 191 190 200 190 153 181 179 227 169 170 189 180 181 193 195 212 181 175 184 215 214 161 168 176 196 189 201 190 226 228 203 205 213 214 203 201 206
141 143 137 136 146 135 130 127 129 114 97 119 117 100 319 166 152 161 171 189 207 201 196 200 193 194 208 201 205 110 169 221 255 210 172 177 166 192 192 202 207 200 194 188 218 187 176 224 191 197 214 217 218 202 222 214 211 209 212 218 206 200
141 143 143 148 151 146 139 140 142 138 119 114 149 124 201 304 110 58 61 210 264 310 336 317 227 228 223 213 203 118 138 205 237 267 144 168 178 192 202 216 244 226 201 177 241 228 228 236 265 208 201 229 220 217 223 216 213 212 225 217 213 205
141 144 150 158 161 161 139 130 135 149 154 167 148 108 111 290 56 49 40 16 1 336 14 318 312 274 334 342 27 65 115 207 204 165 224 201 162 173 210 213 250 305 310 64 296 277 269 227 265 271 223 197 213 228 213 220 220 206 216 224 219 207
144 149 156 152 154 156 146 119 109 105 117 80 76 102 119 98 129 109 82 287 252 319 355 27 14 13 266 255 303 206 156 177 214 167 140 268 175 168 149 126 356 35 313 323 308 322 332 311 297 293 281 263 215 227 204 213 218 215 212 222 220 213
156 153 150 158 163 160 123 107 104 90 92 118 108 101 92 76 83 132 173 236 180 107 224 138 114 209 324 36 292 254 213 186 173 146 123 268 247 189 158 137 108 88 25 11 352 329 306 286 299 290 281 274 264 235 214 223 208 214 210 215 209 223
148 143 148 152 132 107 101 110 127 127 111 120 108 92 92 104 99 71 205 230 110 104 52 67 95 59 257 53 203 233 117 37 176 189 168 205 221 194 160 136 139 117 58 356 347 317 306 289 287 281 280 264 255 231 220 224 222 217 210 181 209 217
146 144 127 98 91 80 86 103 113 113 111 84 81 90 104 115 103 117 205 255 69 80 59 51 97 168 174 219 238 119 69 215 259 143 183 216 211 112 109 185 147 158 150 201 290 314 328 347 318 289 276 262 238 217 209 208 216 225 162 200 205 207
138 125 124 119 94 82 75 85 87 86 77 69 85 114 116 100 104 130 125 121 89 108 101 83 112 280 157 230 254 1 77 330 348 54 86 78 73 131 171 181 178 184 184 189 221 251 277 18 329 317 304 258 228 210 214 206 210 200 195 217 211 208
125 118 107 100 90 80 81 76 67 71 69 68 71 78 90 86 85 78 62 58 65 65 67 69 85 49 307 321 30 52 53 347 304 52 80 159 233 221 139 140 139 154 203 195 205 185 138 107 287 304 314 290 216 218 213 204 194 193 203 220 219 221
125 124 113 97 92 83 69 79 93 70 63 53 67 83 62 79 65 60 50 68 78 73 65 85 98 128 111 66 54 61 112 210 52 64 93 58 46 5 83 158 191 183 192 212 173 151 143 145 279 310 314 320 279 222 214 208 199 203 205 217 224 203
142 137 129 124 121 131 111 72 44 70 111 85 104 82 65 46 61 48 49 55 71 74 75 59 49 58 48 64 71 56 28 25 70 73 64 73 58 91 170 149 131 132 157 209 237 158 148 142 195 300 321 320 316 279 214 182 216 215 214 218 210 208
142 144 145 149 159 147 156 166 157 177 143 129 106 105 100 51 68 68 63 55 60 77 74 65 65 76 66 73 70 61 43 37 49 58 72 70 86 70 14 356 54 65 56 54 62 22 47 149 147 147 300 318 328 313 262 192 218 234 228 218 210 216
155 151 157 161 153 151 139 152 142 182 146 116 55 187 125 67 70 83 64 55 59 63 74 63 53 68 76 67 81 76 60 54 46 61 75 59 48 48 38 35 45 82 94 87 97 2 39 70 134 119 123 0 303 350 321 329 243 246 227 220 201 219
161 155 156 180 155 107 105 104 71 120 81 96 137 103 66 51 59 63 49 44 44 46 60 58 50 75 78 72 79 85 83 68 59 59 85 77 52 38 37 45 48 56 62 92 100 69 346 28 124 150 168 182 257 61 339 356 332 299 278 242 211 222
165 162 163 169 134 125 102 77 85 64 82 78 61 67 84 46 32 69 75 65 25 30 58 58 41 56 76 78 69 73 75 72 66 54 69 74 61 46 42 47 49 61 47 90 107 121 81 55 49 22 117 116 291 273 219 327 333 285 359 347 250 251
164 150 161 164 148 140 140 138 138 132 134 116 134 143 160 169 179 138 154 179 48 32 58 60 44 57 71 76 68 65 68 72 71 61 63 73 69 54 41 44 34 60 53 18 70 77 61 14 37 50 47 65 145 207 258 272 33 297 341 278 300 263
173 164 160 160 164 145 142 157 169 171 169 168 167 213 183 177 158 186 127 117 102 33 41 77 53 62 73 81 86 77 77 76 75 71 67 69 63 60 55 47 34 49 40 37 50 70 38 5 22 31 13 32 30 74 239 276 232 260 309 311 351 347
179 169 165 159 172 170 159 172 173 177 175 166 172 185 176 169 139 126 127 139 108 66 42 55 83 65 78 87 91 83 87 83 80 79 75 70 75 70 72 57 54 56 46 44 51 73 65 32 55 12 349 21 11 350 326 291 277 262 286 285 304 294
179 170 168 168 169 189 168 171 174 169 183 211 189 162 130 120 137 132 129 116 108 66 52 43 65 88 74 92 87 93 86 86 85 83 87 87 80 75 75 76 67 60 61 50 48 56 65 44 42 34 11 18 9 16 315 263 314 338 309 314 306 312
184 183 173 173 173 181 174 156 161 177 178 196 160 99 125 130 137 138 151 157 128 103 87 86 48 69 85 94 102 97 95 96 99 95 87 91 85 76 73 74 74 81 79 75 49 60 73 62 51 47 50 33 36 1 11 22 36 7 319 267 286 309
190 182 171 176 173 183 176 163 175 178 181 178 183 158 138 141 135 132 161 185 169 160 129 125 116 93 101 117 111 110 109 104 98 100 102 96 90 92 82 81 78 76 73 78 69 69 63 51 52 52 46 43 48 39 30 23 8 4 354 334 342 326
192 189 179 175 176 182 178 179 179 178 181 185 174 176 177 181 182 178 179 181 183 133 145 124 107 123 106 116 122 116 118 111 105 98 92 102 108 103 98 85 72 76 78 77 80 78 74 65 61 58 48 33 40 27 36 33 1 349 347 331 328 314
196 192 188 176 182 182 181 187 183 184 192 178 186 185 186 187 184 179 177 164 161 180 173 156 195 151 169 147 130 124 124 118 112 109 114 100 104 105 99 91 85 79 81 84 88 89 76 71 74 66 54 43 42 30 23 357 348 338 333 326 309 309
197 189 184 180 187 183 193 193 186 182 184 178 191 190 193 190 192 185 174 180 180 181 181 190 175 190 180 162 145 136 125 122 124 126 124 119 116 108 101 101 98 88 92 105 89 88 95 91 71 61 63 52 47 38 4 355 346 347 345 339 330 321
194 194 186 190 186 191 195 197 191 186 180 184 188 190 199 198 186 183 187 183 189 175 181 191 185 181 156 152 147 135 136 129 131 128 125 124 119 106 105 95 88 90 80 101 88 95 94 91 75 64 52 39 20 17 4 348 352 344 340 336 330 323
197 191 190 189 195 193 197 195 193 185 188 188 195 193 193 199 204 195 187 186 189 186 194 182 180 152 172 153 153 148 139 138 140 140 141 138 128 116 114 98 84 89 90 120 94 89 110 90 97 119 96 99 52 349 329 334 345 337 335 331 328 333
220 206 198 198 197 196 197 193 202 195 186 186 193 193 195 200 200 199 191 198 189 194 182 178 175 168 157 162 152 149 145 148 144 132 126 123 121 124 121 111 122 117 123 145 132 143 158 135 191 275 14 101 145 230 277 302 323 321 312 316 316 308